| time (UTC) | temp C | wind direction | speed KPH | gust KPH | rain 1hr cm | rain 24hr cm | rain mn cm | humidity % | barometer mb |
| 20260506040043 | 9 | 0 | 0.0 | 0.0 | 0.00 | 1.50 | 0.00 | 94 | 1013.0 |
| 20260506034814 | 9 | 0 | 0.0 | 0.0 | 0.00 | 1.52 | 0.00 | 94 | 1012.9 |
| 20260506033543 | 9 | 68 | 0.0 | 1.6 | 0.00 | 1.52 | 0.00 | 94 | 1013.0 |
| 20260506032313 | 9 | 68 | 0.0 | 1.6 | 0.00 | 1.52 | 0.00 | 94 | 1012.9 |
| 20260506031043 | 9 | 0 | 0.0 | 0.0 | 0.00 | 1.52 | 0.00 | 94 | 1013.0 |
| 20260506025813 | 9 | 0 | 0.0 | 0.0 | 0.00 | 1.52 | 0.00 | 94 | 1012.8 |
| 20260506024543 | 9 | 0 | 0.0 | 0.0 | 0.00 | 1.52 | 0.00 | 94 | 1013.1 |
| 20260506023313 | 9 | 0 | 0.0 | 0.0 | 0.00 | 1.55 | 0.00 | 93 | 1013.1 |
| 20260506022043 | 9 | 0 | 0.0 | 0.0 | 0.00 | 1.57 | 0.00 | 93 | 1013.2 |
| 20260506020813 | 9 | 0 | 0.0 | 0.0 | 0.00 | 1.60 | 0.00 | 93 | 1013.2 |
| 20260506015543 | 9 | 0 | 0.0 | 0.0 | 0.00 | 1.60 | 0.00 | 93 | 1013.4 |
| 20260506014313 | 9 | 0 | 0.0 | 0.0 | 0.00 | 1.60 | 0.00 | 93 | 1013.3 |
| 20260506013043 | 9 | 0 | 0.0 | 0.0 | 0.00 | 1.63 | 0.00 | 93 | 1013.4 |
| 20260506011813 | 10 | 0 | 0.0 | 0.0 | 0.00 | 1.63 | 0.00 | 93 | 1013.2 |
| 20260506010543 | 9 | 0 | 0.0 | 0.0 | 0.00 | 1.63 | 0.00 | 94 | 1013.3 |
| 20260506005313 | 9 | 0 | 0.0 | 0.0 | 0.00 | 1.68 | 0.00 | 94 | 1013.2 |
| 20260505235043 | 8 | 0 | 0.0 | 0.0 | 0.00 | 1.78 | 0.00 | 94 | 1013.9 |
| 20260505233813 | 8 | 0 | 0.0 | 0.0 | 0.00 | 1.78 | 0.00 | 94 | 1014.0 |
| 20260505232543 | 8 | 45 | 0.0 | 1.6 | 0.00 | 1.83 | 0.00 | 94 | 1013.8 |
| 20260505231313 | 8 | 0 | 0.0 | 0.0 | 0.00 | 1.83 | 0.00 | 94 | 1013.8 |
| 20260505230043 | 8 | 45 | 0.0 | 1.6 | 0.00 | 1.83 | 0.00 | 94 | 1013.7 |
| 20260505224813 | 9 | 0 | 0.0 | 0.0 | 0.00 | 1.83 | 0.00 | 93 | 1013.9 |
| 20260505223543 | 10 | 0 | 0.0 | 0.0 | 0.00 | 1.83 | 0.00 | 93 | 1013.9 |
| 20260505222313 | 10 | 0 | 0.0 | 0.0 | 0.00 | 1.83 | 0.00 | 93 | 1014.1 |
| 20260505221043 | 10 | 0 | 0.0 | 0.0 | 0.00 | 1.83 | 0.00 | 93 | 1014.4 |
| 20260505215813 | 10 | 0 | 0.0 | 0.0 | 0.00 | 1.83 | 1.83 | 93 | 1014.3 |
| 20260505214543 | 10 | 46 | 0.0 | 1.6 | 0.00 | 1.83 | 1.83 | 93 | 1014.2 |
| 20260505213313 | 10 | 45 | 0.0 | 1.6 | 0.00 | 1.83 | 1.83 | 93 | 1014.1 |
| 20260505212042 | 10 | 45 | 0.0 | 1.6 | 0.00 | 1.83 | 1.83 | 92 | 1014.2 |
| 20260505210813 | 10 | 0 | 0.0 | 0.0 | 0.00 | 1.83 | 1.83 | 92 | 1014.4 |
| 20260505205542 | 10 | 0 | 0.0 | 0.0 | 0.00 | 1.83 | 1.83 | 92 | 1014.3 |
| 20260505204312 | 11 | 46 | 0.0 | 1.6 | 0.00 | 1.83 | 1.83 | 92 | 1014.4 |
| 20260505203042 | 11 | 0 | 0.0 | 0.0 | 0.00 | 1.83 | 1.83 | 91 | 1014.1 |
| 20260505201813 | 11 | 45 | 0.0 | 1.6 | 0.00 | 1.83 | 1.83 | 91 | 1014.0 |
| 20260505200542 | 11 | 45 | 0.0 | 1.6 | 0.00 | 1.83 | 1.83 | 90 | 1013.7 |
| 20260505195312 | 12 | 45 | 0.0 | 1.6 | 0.00 | 1.83 | 1.83 | 91 | 1013.7 |
| 20260505194042 | 12 | 0 | 0.0 | 0.0 | 0.00 | 1.83 | 1.83 | 90 | 1013.5 |
| 20260505192812 | 12 | 46 | 0.0 | 1.6 | 0.00 | 1.83 | 1.83 | 89 | 1013.4 |
| 20260505191542 | 12 | 41 | 0.0 | 3.2 | 0.00 | 1.83 | 1.83 | 87 | 1013.4 |
| 20260505190312 | 12 | 0 | 0.0 | 0.0 | 0.00 | 1.83 | 1.83 | 85 | 1013.1 |
| 20260505185042 | 12 | 23 | 0.0 | 1.6 | 0.00 | 1.83 | 1.83 | 86 | 1013.3 |
| 20260505183812 | 13 | 23 | 0.0 | 1.6 | 0.00 | 1.83 | 1.83 | 85 | 1013.1 |
| 20260505182542 | 13 | 23 | 0.0 | 1.6 | 0.00 | 1.83 | 1.83 | 82 | 1013.3 |
| 20260505181312 | 14 | 0 | 0.0 | 0.0 | 0.00 | 1.83 | 1.83 | 82 | 1013.2 |
| 20260505180042 | 14 | 28 | 0.0 | 3.2 | 0.00 | 1.83 | 1.83 | 83 | 1013.1 |
| 20260505174812 | 15 | 0 | 0.0 | 0.0 | 0.00 | 1.83 | 1.83 | 81 | 1013.1 |
| 20260505173542 | 14 | 22 | 0.0 | 1.6 | 0.00 | 1.83 | 1.83 | 83 | 1013.1 |
| 20260505172312 | 15 | 0 | 0.0 | 0.0 | 0.00 | 1.83 | 1.83 | 79 | 1013.0 |
| 20260505171042 | 15 | 0 | 0.0 | 0.0 | 0.00 | 1.83 | 1.83 | 74 | 1013.3 |
| 20260505165812 | 15 | 23 | 0.0 | 4.8 | 0.00 | 1.83 | 1.83 | 77 | 1013.3 |
| 20260505164542 | 16 | 22 | 0.0 | 3.2 | 0.00 | 1.83 | 1.83 | 77 | 1013.3 |
| 20260505163312 | 16 | 135 | 0.0 | 1.6 | 0.00 | 1.83 | 1.83 | 80 | 1013.2 |
| 20260505162042 | 15 | 135 | 0.0 | 1.6 | 0.00 | 1.83 | 1.83 | 79 | 1013.2 |
| 20260505160812 | 15 | 135 | 0.0 | 1.6 | 0.00 | 1.83 | 1.83 | 79 | 1013.1 |